weather.gov     
National Weather Service

Regional Weather Roundup
NWS Homepage
This page is being discontinued on March 12, 2014.
The same data is available at this site. Please update your bookmarks.
Thank you, and we apologize for the inconvenience.
Please send an email to SR-SRH.Webmaster@noaa.gov with any concerns.


Current Version
Previous Version:    01  02  03  04  05  06  07  08  09  10  11  12  13  14  15  16  17  18  19  20  21  22  23  24  25  26  27  28  29  30  
   31  32  33  34  35  36  37  38  39  40  41  42  43  44  45  46  47  48  49  50  51  52  53  54  55  56  
[Printable]
148
ASUS41 KGYX 202205
RWRGYX
WEATHER ROUNDUP FOR MAINE AND NEW HAMPSHIRE
NATIONAL WEATHER SERVICE GRAY ME
600 PM EDT SAT SEP 20 2014

MEZ002-005-006-010-012-015-018-020-021-024-026-027-029-202300-
MAINE

CITY           SKY/WX    TMP DP  RH WIND       PRES   REMARKS
PORTLAND       CLOUDY    60  54  80 S12G20    30.13F
SANFORD        CLOUDY    63  52  67 S5        30.13F
BAR HARBOR     CLOUDY    59  54  82 SW9       30.15F
WISCASSET      CLOUDY    61  53  75 S7        30.15F
ROCKLAND       CLOUDY    59  54  82 S10       30.14F
FRYEBURG       CLOUDY    58  51  78 W3        30.12F
LEWISTONAUBURN CLOUDY    59  52  77 S9        30.12F
AUGUSTA        CLOUDY    58  52  80 S8        30.13F
WATERVILLE     CLOUDY    57  48  72 S9        30.07F
BANGOR         CLOUDY    59  49  69 S9G20     30.13F
GREENVILLE       N/A     53  47  79 S9        30.05F
MILLINOCKET    MOCLDY    58  49  72 MISG      30.07F
HOULTON        MOCLDY    56  47  71 S12G23    30.03F
PRESQUE ISLE   CLOUDY    55  45  67 S14G22    29.98S
FRENCHVILLE    LGT RAIN  49  47  93 S13G20    29.92F
CARIBOU        LGT RAIN  55  47  74 S12       29.97F
$$

NHZ002-005-008-009-011-012-014-202300-
NEW HAMPSHIRE

CITY           SKY/WX    TMP DP  RH WIND       PRES   REMARKS
PORTSMOUTH     CLOUDY    65  56  70 SE8       30.11F
ROCHESTER      CLOUDY    63  55  75 SE3       30.12F
NASHUA         PTCLDY    70  55  58 CALM      30.12F
MANCHESTER     MOCLDY    69  53  56 S9        30.10F
CONCORD        CLOUDY    66  56  70 SE7       30.11F
LACONIA        MOCLDY    64  54  68 SW5       30.09F
PLYMOUTH       CLOUDY    56  53  88 CALM      30.11F
BERLIN         CLOUDY    60  52  74 S8        30.06F
WHITEFIELD     CLOUDY    64  53  67 SW3       30.06F
JAFFREY        PTCLDY    65  55  70 S7G21     30.13F
LEBANON        CLOUDY    66  55  67 S5        30.07S
MT WASHINGTON  FOG       43  43 100 W56         N/A  VSB 0
$$

VTZ005-007-008-202300-
VERMONT

CITY           SKY/WX    TMP DP  RH WIND       PRES   REMARKS
ST JOHNSBURY     N/A     60  53  77 MISG      30.04S
MONTPELIER     CLOUDY    60  54  80 S7        30.09S
BURLINGTON     MOCLDY    68  56  65 S15       30.00R
$$

MAZ007-012-024-CTZ003-RIZ002-NYZ038-NYZ072-202300-
SOUTHERN NEW ENGLAND AND NY

CITY           SKY/WX    TMP DP  RH WIND       PRES   REMARKS
BOSTON         MOCLDY    68  53  58 SW17      30.15F
WORCESTER      CLOUDY    64  54  69 S13       30.16F
NANTUCKET      CLEAR     65  57  75 S8        30.20F
PROVIDENCE     PTCLDY    68  52  56 S16       30.18F
HARTFORD       PTCLDY    72  55  55 S13       30.12F
ALBANY         MOCLDY    72  55  55 S14G25    30.06S
NEW YORK CITY  MOCLDY    72  56  57 S12       30.13F
$$

ANZ081-ANZ082-ANZ150-NHZ014-MEZ023>029-202300-
COASTAL MARINE OBSERVATIONS

STATION/POSITION TIME  TEMP    WIND        PRES    WAVE
                       AIR SEA DIR/SP/G            HT/PER
                 (UTC) (F)     (DEG/KT/KT) (MB)    (FT/S)
MATINICUS ROCK   2100          210/ 15/ 17 1021.5F
PORTLAND WX BUOY 2150   60 58  180/ 17/ 19 1019.9F   5/ 6
WELLS            2100   61 58  200/ 15/ 19 1019.9F
ISLE OF SHOALS   2100   63     170/ 22/ 23 1020.0F
JEFFREYS LEDGE   2121      59                N/A     5/ 5
CASHES LEDGE BUO 2150   62 60              1021.1F   5/ 5
$$

.............KEY..............
   WCI - WIND CHILL
   TC  - TEMPERATURE IN CELSIUS
   VSB - VISIBILITY IN MILES
   HX  - HEAT INDEX
   FAIR- INDICATES FEW OR NO CLOUDS BELOW 12,000 FT, WITH NO
         SIGNIFICANT WEATHER AND/OR OBSTRUCTIONS TO VISIBILITY.






U.S. Dept. of Commerce
NOAA National Weather Service
1325 East West Highway
Silver Spring, MD 20910
E-mail: w-nws.webmaster@noaa.gov
Page last modified: May 16, 2007
NATIONAL WEATHER SERVICE: for Safety, for Work, for Fun - FOR LIFE